Terug naar catalogus

SL-16 DEB

ActiefLEO
NORAD 23302·DEBRIS·🇷🇺 Russia

Gelanceerd Dec 25, 1992 vanaf Baikonur Cosmodrome

Loading…

Volgende Passages (komende 24 uur)

TLE

VerouderendSource: Space-Track

Epoch: Sep 11, 2026, 15:12 UTC

1 23302U 92093JH  26254.63366806  .00001046  00000-0  54034-3 0  9990
2 23302  71.1321 327.4501 0112198 171.1989 338.8906 14.14060036666434

Volg SL-16 DEB in realtime met AllMySat

Download on the App Store